| time (UTC) | temp F | wind direction | speed MPH | gust MPH | rain 1hr in | rain 24hr in | rain mn in | humidity % | barometer mb |
| 20260505235004 | 72 | 175 | 2.0 | 5.0 | 0.00 | 0.00 | 0.00 | 60 | 1011.3 |
| 20260505234514 | 72 | 144 | 1.0 | 11.0 | 0.00 | 0.00 | 0.00 | 60 | 1011.3 |
| 20260505233506 | 72 | 134 | 1.0 | 6.0 | 0.00 | 0.00 | 0.00 | 59 | 1011.5 |
| 20260505233010 | 72 | 122 | 3.0 | 7.0 | 0.00 | 0.00 | 0.00 | 59 | 1011.6 |
| 20260505232507 | 72 | 107 | 4.0 | 7.0 | 0.00 | 0.00 | 0.00 | 59 | 1011.6 |
| 20260505232011 | 72 | 115 | 1.0 | 7.0 | 0.00 | 0.00 | 0.00 | 59 | 1011.7 |
| 20260505231526 | 72 | 128 | 1.0 | 7.0 | 0.00 | 0.00 | 0.00 | 59 | 1011.8 |
| 20260505231003 | 73 | 146 | 1.0 | 8.0 | 0.00 | 0.00 | 0.00 | 59 | 1012.0 |
| 20260505230505 | 73 | 170 | 1.0 | 8.0 | 0.00 | 0.00 | 0.00 | 58 | 1012.0 |
| 20260505230029 | 73 | 136 | 3.0 | 7.0 | 0.00 | 0.00 | 0.00 | 58 | 1011.9 |
| 20260505225504 | 73 | 138 | 2.0 | 6.0 | 0.00 | 0.00 | 0.00 | 58 | 1011.9 |
| 20260505225008 | 73 | 189 | 1.0 | 8.0 | 0.00 | 0.00 | 0.00 | 58 | 1011.9 |
| 20260505224522 | 73 | 130 | 1.0 | 8.0 | 0.00 | 0.00 | 0.00 | 58 | 1012.0 |
| 20260505224010 | 73 | 138 | 3.0 | 6.0 | 0.00 | 0.00 | 0.00 | 58 | 1012.0 |
| 20260505222506 | 72 | 110 | 2.0 | 7.0 | 0.00 | 0.00 | 0.00 | 58 | 1012.2 |
| 20260505222005 | 73 | 214 | 2.0 | 7.0 | 0.00 | 0.00 | 0.00 | 57 | 1012.2 |
| 20260505221518 | 73 | 120 | 1.0 | 8.0 | 0.00 | 0.00 | 0.00 | 57 | 1012.3 |
| 20260505221010 | 73 | 136 | 1.0 | 8.0 | 0.00 | 0.00 | 0.00 | 58 | 1012.2 |
| 20260505220014 | 73 | 117 | 0.0 | 7.0 | 0.00 | 0.00 | 0.00 | 57 | 1012.2 |
| 20260505215506 | 73 | 132 | 1.0 | 8.0 | 0.00 | 0.00 | 0.00 | 57 | 1012.2 |
| 20260505215010 | 73 | 187 | 1.0 | 8.0 | 0.00 | 0.00 | 0.00 | 57 | 1012.1 |
| 20260505214007 | 73 | 98 | 3.0 | 10.0 | 0.00 | 0.00 | 0.00 | 56 | 1012.0 |
| 20260505213507 | 73 | 123 | 2.0 | 8.0 | 0.00 | 0.00 | 0.00 | 56 | 1012.2 |
| 20260505213022 | 73 | 166 | 3.0 | 8.0 | 0.00 | 0.00 | 0.00 | 55 | 1012.2 |
| 20260505212506 | 73 | 142 | 3.0 | 7.0 | 0.00 | 0.00 | 0.00 | 54 | 1012.2 |
| 20260505212007 | 74 | 96 | 3.0 | 8.0 | 0.00 | 0.00 | 0.00 | 53 | 1012.3 |
| 20260505211526 | 74 | 165 | 2.0 | 8.0 | 0.00 | 0.00 | 0.00 | 53 | 1012.2 |
| 20260505211009 | 74 | 184 | 2.0 | 9.0 | 0.00 | 0.00 | 0.00 | 53 | 1012.3 |
| 20260505210508 | 74 | 122 | 3.0 | 10.0 | 0.00 | 0.00 | 0.00 | 52 | 1012.2 |
| 20260505205512 | 73 | 184 | 4.0 | 10.0 | 0.00 | 0.00 | 0.00 | 53 | 1012.2 |
| 20260505205004 | 73 | 230 | 2.0 | 8.0 | 0.00 | 0.00 | 0.00 | 53 | 1012.1 |
| 20260505204519 | 73 | 144 | 1.0 | 8.0 | 0.00 | 0.00 | 0.00 | 54 | 1012.0 |
| 20260505204008 | 72 | 122 | 3.0 | 6.0 | 0.00 | 0.00 | 0.00 | 53 | 1012.0 |
| 20260505203510 | 72 | 144 | 2.0 | 6.0 | 0.00 | 0.00 | 0.00 | 54 | 1011.8 |
| 20260505202506 | 73 | 93 | 2.0 | 7.0 | 0.00 | 0.00 | 0.00 | 53 | 1011.9 |
| 20260505202009 | 73 | 197 | 2.0 | 7.0 | 0.00 | 0.00 | 0.00 | 52 | 1011.9 |
| 20260505201514 | 73 | 89 | 2.0 | 7.0 | 0.00 | 0.00 | 0.00 | 52 | 1012.1 |
| 20260505201006 | 73 | 241 | 0.0 | 7.0 | 0.00 | 0.00 | 0.00 | 52 | 1012.2 |
| 20260505200508 | 73 | 190 | 2.0 | 6.0 | 0.00 | 0.00 | 0.00 | 51 | 1012.1 |
| 20260505200033 | 73 | 203 | 0.0 | 5.0 | 0.00 | 0.00 | 0.00 | 53 | 1012.1 |
| 20260505195506 | 72 | 157 | 0.0 | 5.0 | 0.00 | 0.00 | 0.00 | 52 | 1012.3 |
| 20260505195006 | 73 | 117 | 2.0 | 5.0 | 0.00 | 0.00 | 0.00 | 52 | 1012.2 |
| 20260505193510 | 72 | 142 | 0.0 | 6.0 | 0.00 | 0.00 | 0.00 | 53 | 1012.2 |
| 20260505193023 | 72 | 111 | 1.0 | 8.0 | 0.00 | 0.00 | 0.00 | 54 | 1012.2 |
| 20260505192519 | 72 | 136 | 1.0 | 8.0 | 0.00 | 0.00 | 0.00 | 52 | 1012.6 |
| 20260505192009 | 73 | 141 | 1.0 | 7.0 | 0.00 | 0.00 | 0.00 | 52 | 1012.7 |
| 20260505191522 | 73 | 109 | 2.0 | 7.0 | 0.00 | 0.00 | 0.00 | 51 | 1012.8 |
| 20260505191010 | 73 | 94 | 1.0 | 5.0 | 0.00 | 0.00 | 0.00 | 49 | 1013.1 |
| 20260505190510 | 74 | 107 | 2.0 | 5.0 | 0.00 | 0.00 | 0.00 | 48 | 1013.7 |
| 20260505190026 | 74 | 169 | 1.0 | 3.0 | 0.00 | 0.00 | 0.00 | 48 | 1013.9 |
| 20260505185510 | 74 | 79 | 1.0 | 4.0 | 0.00 | 0.00 | 0.00 | 47 | 1014.2 |
| 20260505185010 | 75 | 142 | 2.0 | 4.0 | 0.00 | 0.00 | 0.00 | 48 | 1014.4 |
| 20260505184515 | 75 | 122 | 1.0 | 6.0 | 0.00 | 0.00 | 0.00 | 47 | 1014.4 |
| 20260505184006 | 75 | 100 | 0.0 | 6.0 | 0.00 | 0.00 | 0.00 | 46 | 1014.4 |
| 20260505183510 | 76 | 115 | 1.0 | 6.0 | 0.00 | 0.00 | 0.00 | 46 | 1014.5 |
| 20260505183031 | 76 | 31 | 0.0 | 5.0 | 0.00 | 0.00 | 0.00 | 45 | 1014.5 |
| 20260505182511 | 76 | 269 | 3.0 | 6.0 | 0.00 | 0.00 | 0.00 | 44 | 1014.3 |
| 20260505182009 | 76 | 122 | 2.0 | 6.0 | 0.00 | 0.00 | 0.00 | 42 | 1014.3 |
| 20260505181526 | 76 | 68 | 1.0 | 5.0 | 0.00 | 0.00 | 0.00 | 43 | 1014.5 |
| 20260505181011 | 76 | 133 | 2.0 | 6.0 | 0.00 | 0.00 | 0.00 | 43 | 1014.5 |
| 20260505180506 | 76 | 113 | 2.0 | 6.0 | 0.00 | 0.00 | 0.00 | 42 | 1014.6 |
| 20260505180025 | 77 | 247 | 0.0 | 7.0 | 0.00 | 0.00 | 0.00 | 44 | 1014.5 |
| 20260505175511 | 76 | 72 | 3.0 | 8.0 | 0.00 | 0.00 | 0.00 | 45 | 1014.4 |
| 20260505175006 | 76 | 119 | 4.0 | 8.0 | 0.00 | 0.00 | 0.00 | 42 | 1014.4 |
| 20260505174521 | 77 | 248 | 0.0 | 4.0 | 0.00 | 0.00 | 0.00 | 44 | 1014.3 |
| 20260505174009 | 76 | 134 | 2.0 | 7.0 | 0.00 | 0.00 | 0.00 | 44 | 1014.4 |
| 20260505173517 | 76 | 114 | 3.0 | 7.0 | 0.00 | 0.00 | 0.00 | 43 | 1014.4 |
| 20260505173018 | 75 | 102 | 1.0 | 7.0 | 0.00 | 0.00 | 0.00 | 43 | 1014.5 |
| 20260505172507 | 75 | 172 | 2.0 | 7.0 | 0.00 | 0.00 | 0.00 | 43 | 1014.4 |
| 20260505172010 | 75 | 117 | 2.0 | 9.0 | 0.00 | 0.00 | 0.00 | 44 | 1014.5 |
| 20260505171516 | 75 | 113 | 4.0 | 9.0 | 0.00 | 0.00 | 0.00 | 43 | 1014.7 |
| 20260505171008 | 75 | 116 | 1.0 | 6.0 | 0.00 | 0.00 | 0.00 | 47 | 1014.8 |
| 20260505170508 | 74 | 258 | 2.0 | 9.0 | 0.00 | 0.00 | 0.00 | 46 | 1014.9 |
| 20260505170028 | 75 | 174 | 2.0 | 9.0 | 0.00 | 0.00 | 0.00 | 46 | 1015.0 |
| 20260505165506 | 74 | 102 | 1.0 | 12.0 | 0.00 | 0.00 | 0.00 | 46 | 1015.0 |
| 20260505164525 | 74 | 117 | 4.0 | 8.0 | 0.00 | 0.00 | 0.00 | 44 | 1015.1 |
| 20260505164004 | 74 | 72 | 2.0 | 8.0 | 0.00 | 0.00 | 0.00 | 48 | 1015.1 |
| 20260505163510 | 73 | 128 | 1.0 | 7.0 | 0.00 | 0.00 | 0.00 | 47 | 1015.0 |
| 20260505163028 | 73 | 113 | 2.0 | 7.0 | 0.00 | 0.00 | 0.00 | 48 | 1014.9 |
| 20260505162511 | 73 | 254 | 2.0 | 9.0 | 0.00 | 0.00 | 0.00 | 50 | 1015.0 |
| 20260505162010 | 73 | 198 | 2.0 | 9.0 | 0.00 | 0.00 | 0.00 | 50 | 1015.0 |
| 20260505161523 | 73 | 122 | 1.0 | 8.0 | 0.00 | 0.00 | 0.00 | 51 | 1015.0 |
| 20260505161014 | 72 | 252 | 1.0 | 8.0 | 0.00 | 0.00 | 0.00 | 50 | 1015.0 |
| 20260505160514 | 72 | 129 | 2.0 | 7.0 | 0.00 | 0.00 | 0.00 | 51 | 1014.9 |
| 20260505153025 | 70 | 116 | 0.0 | 6.0 | 0.00 | 0.00 | 0.00 | 59 | 1014.8 |
| 20260505152508 | 70 | 117 | 2.0 | 4.0 | 0.00 | 0.00 | 0.00 | 58 | 1014.8 |
| 20260505152013 | 70 | 125 | 2.0 | 5.0 | 0.00 | 0.00 | 0.00 | 59 | 1014.7 |
| 20260505151513 | 70 | 144 | 2.0 | 5.0 | 0.00 | 0.00 | 0.00 | 58 | 1014.8 |
| 20260505151009 | 70 | 162 | 1.0 | 3.0 | 0.00 | 0.00 | 0.00 | 60 | 1014.9 |
| 20260505150503 | 69 | 110 | 0.0 | 4.0 | 0.00 | 0.00 | 0.00 | 62 | 1014.8 |
| 20260505140503 | 65 | 96 | 1.0 | 5.0 | 0.00 | 0.00 | 0.00 | 70 | 1015.0 |
| 20260505124530 | 60 | 146 | 0.0 | 3.0 | 0.00 | 0.00 | 0.00 | 76 | 1014.7 |
| 20260505124005 | 60 | 141 | 1.0 | 3.0 | 0.00 | 0.00 | 0.00 | 76 | 1014.7 |
| 20260505123503 | 60 | 139 | 0.0 | 2.0 | 0.00 | 0.00 | 0.00 | 77 | 1014.7 |
| 20260505122513 | 59 | 103 | 0.0 | 2.0 | 0.00 | 0.00 | 0.00 | 77 | 1014.7 |
| 20260505122008 | 58 | 124 | 0.0 | 0.0 | 0.00 | 0.00 | 0.00 | 79 | 1014.7 |
| 20260505121527 | 58 | 94 | 0.0 | 0.0 | 0.00 | 0.00 | 0.00 | 80 | 1014.8 |
| 20260505121009 | 57 | 148 | 0.0 | 0.0 | 0.00 | 0.00 | 0.00 | 81 | 1014.7 |
| 20260505120506 | 57 | 119 | 0.0 | 0.0 | 0.00 | 0.00 | 0.00 | 83 | 1014.6 |
| 20260505120029 | 56 | 144 | 0.0 | 0.0 | 0.00 | 0.00 | 0.00 | 83 | 1014.6 |
| 20260505115508 | 56 | 144 | 0.0 | 0.0 | 0.00 | 0.00 | 0.00 | 82 | 1014.7 |
| 20260505115008 | 56 | 144 | 0.0 | 0.0 | 0.00 | 0.00 | 0.00 | 83 | 1014.4 |
| 20260505114511 | 55 | 144 | 0.0 | 0.0 | 0.00 | 0.00 | 0.00 | 83 | 1014.3 |
| 20260505114007 | 55 | 144 | 0.0 | 0.0 | 0.00 | 0.00 | 0.00 | 84 | 1014.2 |
| 20260505113509 | 55 | 144 | 0.0 | 0.0 | 0.00 | 0.00 | 0.00 | 85 | 1014.0 |
| 20260505113009 | 55 | 144 | 0.0 | 0.0 | 0.00 | 0.00 | 0.00 | 86 | 1013.9 |
| 20260505112505 | 54 | 144 | 0.0 | 0.0 | 0.00 | 0.00 | 0.00 | 85 | 1013.8 |
| 20260505112009 | 55 | 144 | 0.0 | 0.0 | 0.00 | 0.00 | 0.00 | 84 | 1013.8 |
| 20260505111524 | 55 | 144 | 0.0 | 0.0 | 0.00 | 0.00 | 0.00 | 84 | 1013.8 |
| 20260505111003 | 55 | 144 | 0.0 | 0.0 | 0.00 | 0.00 | 0.00 | 83 | 1013.9 |
| 20260505110506 | 55 | 144 | 0.0 | 0.0 | 0.00 | 0.00 | 0.00 | 83 | 1013.8 |
| 20260505102011 | 58 | 144 | 0.0 | 0.0 | 0.00 | 0.00 | 0.00 | 75 | 1013.3 |
| 20260505101512 | 58 | 144 | 0.0 | 0.0 | 0.00 | 0.00 | 0.00 | 75 | 1013.2 |
| 20260505101010 | 58 | 144 | 0.0 | 0.0 | 0.00 | 0.00 | 0.00 | 74 | 1013.2 |
| 20260505100506 | 58 | 143 | 0.0 | 0.0 | 0.00 | 0.00 | 0.00 | 74 | 1013.1 |
| 20260505100011 | 58 | 137 | 0.0 | 0.0 | 0.00 | 0.00 | 0.00 | 74 | 1013.2 |
| 20260505095509 | 58 | 126 | 0.0 | 0.0 | 0.00 | 0.00 | 0.00 | 74 | 1013.1 |
| 20260505095007 | 58 | 136 | 0.0 | 3.0 | 0.00 | 0.00 | 0.00 | 74 | 1013.0 |
| 20260505094535 | 59 | 120 | 0.0 | 4.0 | 0.00 | 0.00 | 0.00 | 73 | 1012.8 |
| 20260505094004 | 58 | 115 | 0.0 | 4.0 | 0.00 | 0.00 | 0.00 | 73 | 1012.8 |
| 20260505093504 | 58 | 154 | 0.0 | 4.0 | 0.00 | 0.00 | 0.00 | 73 | 1012.9 |
| 20260505093024 | 58 | 165 | 0.0 | 3.0 | 0.00 | 0.00 | 0.00 | 74 | 1012.8 |
| 20260505092506 | 58 | 136 | 0.0 | 0.0 | 0.00 | 0.00 | 0.00 | 74 | 1012.9 |
| 20260505092005 | 58 | 136 | 0.0 | 0.0 | 0.00 | 0.00 | 0.00 | 74 | 1012.9 |
| 20260505091520 | 58 | 142 | 0.0 | 0.0 | 0.00 | 0.00 | 0.00 | 74 | 1013.0 |
| 20260505091007 | 58 | 143 | 0.0 | 0.0 | 0.00 | 0.00 | 0.00 | 74 | 1013.0 |
| 20260505090020 | 58 | 120 | 0.0 | 0.0 | 0.00 | 0.00 | 0.00 | 74 | 1012.9 |
| 20260505085507 | 58 | 141 | 0.0 | 0.0 | 0.00 | 0.00 | 0.00 | 73 | 1012.9 |
| 20260505085010 | 58 | 136 | 0.0 | 1.0 | 0.00 | 0.00 | 0.00 | 72 | 1012.8 |
| 20260505084512 | 58 | 135 | 0.0 | 3.0 | 0.00 | 0.00 | 0.00 | 72 | 1013.0 |
| 20260505083509 | 58 | 125 | 0.0 | 1.0 | 0.00 | 0.00 | 0.00 | 73 | 1013.0 |
| 20260505083016 | 58 | 127 | 0.0 | 1.0 | 0.00 | 0.00 | 0.00 | 73 | 1013.0 |
| 20260505082511 | 58 | 142 | 0.0 | 1.0 | 0.00 | 0.00 | 0.00 | 73 | 1013.0 |
| 20260505082012 | 58 | 142 | 0.0 | 1.0 | 0.00 | 0.00 | 0.00 | 73 | 1013.1 |
| 20260505081527 | 58 | 142 | 0.0 | 1.0 | 0.00 | 0.00 | 0.00 | 73 | 1013.0 |
| 20260505081011 | 58 | 142 | 0.0 | 1.0 | 0.00 | 0.00 | 0.00 | 73 | 1013.1 |
| 20260505080507 | 58 | 134 | 0.0 | 0.0 | 0.00 | 0.00 | 0.00 | 73 | 1013.2 |
| 20260505080024 | 58 | 134 | 0.0 | 1.0 | 0.00 | 0.00 | 0.00 | 74 | 1013.2 |
| 20260505075012 | 57 | 132 | 0.0 | 0.0 | 0.00 | 0.00 | 0.00 | 75 | 1013.3 |
| 20260505074521 | 57 | 133 | 0.0 | 0.0 | 0.00 | 0.00 | 0.00 | 76 | 1013.4 |
| 20260505074009 | 57 | 103 | 0.0 | 1.0 | 0.00 | 0.00 | 0.00 | 76 | 1013.4 |
| 20260505073508 | 57 | 143 | 0.0 | 1.0 | 0.00 | 0.00 | 0.00 | 76 | 1013.7 |
| 20260505073020 | 57 | 143 | 0.0 | 0.0 | 0.00 | 0.00 | 0.00 | 77 | 1013.7 |
| 20260505072508 | 57 | 144 | 0.0 | 0.0 | 0.00 | 0.00 | 0.00 | 77 | 1013.7 |
| 20260505072011 | 56 | 144 | 0.0 | 0.0 | 0.00 | 0.00 | 0.00 | 78 | 1013.6 |
| 20260505071529 | 56 | 144 | 0.0 | 0.0 | 0.00 | 0.00 | 0.00 | 79 | 1013.6 |
| 20260505071008 | 56 | 144 | 0.0 | 0.0 | 0.00 | 0.00 | 0.00 | 80 | 1013.5 |
| 20260505070511 | 56 | 144 | 0.0 | 0.0 | 0.00 | 0.00 | 0.00 | 80 | 1013.6 |
| 20260505070013 | 56 | 144 | 0.0 | 0.0 | 0.00 | 0.00 | 0.00 | 80 | 1013.5 |
| 20260505065505 | 56 | 144 | 0.0 | 0.0 | 0.00 | 0.00 | 0.00 | 80 | 1013.5 |
| 20260505065009 | 56 | 144 | 0.0 | 0.0 | 0.00 | 0.00 | 0.00 | 79 | 1013.5 |
| 20260505064524 | 56 | 144 | 0.0 | 0.0 | 0.00 | 0.00 | 0.00 | 80 | 1013.6 |
| 20260505063508 | 57 | 144 | 0.0 | 0.0 | 0.00 | 0.00 | 0.00 | 79 | 1013.6 |
| 20260505063026 | 57 | 143 | 0.0 | 0.0 | 0.00 | 0.00 | 0.00 | 78 | 1013.6 |
| 20260505062507 | 57 | 144 | 0.0 | 0.0 | 0.00 | 0.00 | 0.00 | 78 | 1013.7 |
| 20260505061523 | 57 | 144 | 0.0 | 0.0 | 0.00 | 0.00 | 0.00 | 77 | 1013.7 |
| 20260505061013 | 58 | 144 | 0.0 | 0.0 | 0.00 | 0.00 | 0.00 | 77 | 1013.8 |
| 20260505060508 | 58 | 144 | 0.0 | 0.0 | 0.00 | 0.00 | 0.00 | 76 | 1013.8 |
| 20260505060035 | 58 | 144 | 0.0 | 0.0 | 0.00 | 0.00 | 0.00 | 75 | 1013.8 |
| 20260505055513 | 58 | 144 | 0.0 | 0.0 | 0.00 | 0.00 | 0.00 | 75 | 1013.8 |
| 20260505055006 | 58 | 144 | 0.0 | 0.0 | 0.00 | 0.00 | 0.00 | 75 | 1013.8 |
| 20260505054011 | 59 | 144 | 0.0 | 0.0 | 0.00 | 0.00 | 0.00 | 73 | 1013.8 |
| 20260505053513 | 59 | 143 | 0.0 | 0.0 | 0.00 | 0.00 | 0.00 | 73 | 1013.8 |
| 20260505053016 | 60 | 144 | 0.0 | 0.0 | 0.00 | 0.00 | 0.00 | 72 | 1013.8 |
| 20260505052508 | 60 | 143 | 0.0 | 0.0 | 0.00 | 0.00 | 0.00 | 71 | 1013.9 |
| 20260505052008 | 60 | 144 | 0.0 | 0.0 | 0.00 | 0.00 | 0.00 | 70 | 1013.9 |
| 20260505051007 | 61 | 143 | 0.0 | 0.0 | 0.00 | 0.00 | 0.00 | 68 | 1013.9 |
| 20260505041524 | 63 | 124 | 0.0 | 0.0 | 0.00 | 0.00 | 0.00 | 63 | 1013.6 |
| 20260505041010 | 64 | 123 | 0.0 | 2.0 | 0.00 | 0.00 | 0.00 | 63 | 1013.6 |
| 20260505040510 | 64 | 134 | 0.0 | 2.0 | 0.00 | 0.00 | 0.00 | 63 | 1013.7 |
| 20260505040021 | 64 | 127 | 0.0 | 1.0 | 0.00 | 0.00 | 0.00 | 62 | 1013.6 |
| 20260505035010 | 64 | 127 | 0.0 | 1.0 | 0.00 | 0.00 | 0.00 | 60 | 1013.6 |
| 20260505034528 | 64 | 136 | 0.0 | 1.0 | 0.00 | 0.00 | 0.00 | 60 | 1013.7 |
| 20260505034008 | 65 | 100 | 0.0 | 1.0 | 0.00 | 0.00 | 0.00 | 60 | 1013.7 |
| 20260505033508 | 65 | 125 | 0.0 | 1.0 | 0.00 | 0.00 | 0.00 | 59 | 1013.6 |
| 20260505033026 | 65 | 127 | 0.0 | 1.0 | 0.00 | 0.00 | 0.00 | 59 | 1013.7 |
| 20260505032507 | 65 | 137 | 0.0 | 1.0 | 0.00 | 0.00 | 0.00 | 58 | 1013.6 |
| 20260505032008 | 66 | 141 | 0.0 | 1.0 | 0.00 | 0.00 | 0.00 | 56 | 1013.7 |
| 20260505031526 | 66 | 141 | 0.0 | 2.0 | 0.00 | 0.00 | 0.00 | 55 | 1013.7 |
| 20260505031007 | 67 | 143 | 0.0 | 2.0 | 0.00 | 0.00 | 0.00 | 54 | 1013.7 |
| 20260505030506 | 67 | 128 | 0.0 | 2.0 | 0.00 | 0.00 | 0.00 | 54 | 1013.7 |
| 20260505030005 | 67 | 145 | 0.0 | 1.0 | 0.00 | 0.00 | 0.00 | 53 | 1013.7 |
| 20260505025505 | 67 | 141 | 0.0 | 1.0 | 0.00 | 0.00 | 0.00 | 53 | 1013.7 |
| 20260505025002 | 67 | 129 | 0.0 | 3.0 | 0.00 | 0.00 | 0.00 | 53 | 1013.7 |
| 20260505024509 | 67 | 134 | 0.0 | 3.0 | 0.00 | 0.00 | 0.00 | 53 | 1013.6 |
| 20260505024004 | 67 | 158 | 0.0 | 3.0 | 0.00 | 0.00 | 0.00 | 53 | 1013.7 |
| 20260505023503 | 67 | 151 | 0.0 | 2.0 | 0.00 | 0.00 | 0.00 | 53 | 1013.6 |
| 20260505023013 | 68 | 150 | 0.0 | 2.0 | 0.00 | 0.00 | 0.00 | 53 | 1013.6 |
| 20260505022503 | 67 | 167 | 0.0 | 1.0 | 0.00 | 0.00 | 0.00 | 53 | 1013.6 |
| 20260505022004 | 67 | 131 | 0.0 | 1.0 | 0.00 | 0.00 | 0.00 | 53 | 1013.5 |
| 20260505021510 | 67 | 143 | 0.0 | 1.0 | 0.00 | 0.00 | 0.00 | 52 | 1013.5 |
| 20260505021006 | 67 | 139 | 0.0 | 1.0 | 0.00 | 0.00 | 0.00 | 52 | 1013.4 |
| 20260505020503 | 68 | 142 | 0.0 | 1.0 | 0.00 | 0.00 | 0.00 | 53 | 1013.4 |
| 20260505020003 | 68 | 142 | 0.0 | 1.0 | 0.00 | 0.00 | 0.00 | 52 | 1013.4 |
| 20260505015503 | 68 | 142 | 0.0 | 1.0 | 0.00 | 0.00 | 0.00 | 51 | 1013.4 |
| 20260505015003 | 68 | 134 | 0.0 | 0.0 | 0.00 | 0.00 | 0.00 | 51 | 1013.3 |
| 20260505014511 | 69 | 137 | 0.0 | 0.0 | 0.00 | 0.00 | 0.00 | 51 | 1013.3 |
| 20260505014006 | 69 | 137 | 0.0 | 0.0 | 0.00 | 0.00 | 0.00 | 51 | 1013.3 |
| 20260505013502 | 69 | 143 | 0.0 | 0.0 | 0.00 | 0.00 | 0.00 | 51 | 1013.3 |
| 20260505013004 | 69 | 134 | 0.0 | 0.0 | 0.00 | 0.00 | 0.00 | 51 | 1013.3 |
| 20260505012504 | 69 | 134 | 0.0 | 0.0 | 0.00 | 0.00 | 0.00 | 50 | 1013.2 |
| 20260505012004 | 70 | 134 | 0.0 | 0.0 | 0.00 | 0.00 | 0.00 | 50 | 1013.3 |
| 20260505011004 | 70 | 134 | 0.0 | 3.0 | 0.00 | 0.00 | 0.00 | 50 | 1013.2 |
| 20260505010505 | 70 | 145 | 0.0 | 2.0 | 0.00 | 0.00 | 0.00 | 49 | 1013.2 |
| 20260505010005 | 70 | 116 | 0.0 | 2.0 | 0.00 | 0.00 | 0.00 | 49 | 1013.1 |
| 20260505005505 | 71 | 136 | 0.0 | 0.0 | 0.00 | 0.00 | 0.00 | 48 | 1013.2 |
| 20260505005004 | 71 | 136 | 0.0 | 3.0 | 0.00 | 0.00 | 0.00 | 48 | 1013.1 |
| 20260505004503 | 71 | 136 | 0.0 | 3.0 | 0.00 | 0.00 | 0.00 | 47 | 1013.0 |
| 20260505004003 | 72 | 187 | 0.0 | 2.0 | 0.00 | 0.00 | 0.00 | 47 | 1013.0 |
| 20260505003506 | 72 | 163 | 0.0 | 2.0 | 0.00 | 0.00 | 0.00 | 47 | 1013.0 |
| 20260505003004 | 72 | 133 | 0.0 | 3.0 | 0.00 | 0.00 | 0.00 | 47 | 1013.0 |
| 20260505001004 | 73 | 202 | 0.0 | 4.0 | 0.00 | 0.00 | 0.00 | 45 | 1012.9 |
| 20260505000504 | 74 | 150 | 1.0 | 4.0 | 0.00 | 0.00 | 0.00 | 45 | 1012.9 |
| 20260505000014 | 74 | 155 | 1.0 | 4.0 | 0.00 | 0.00 | 0.00 | 45 | 1012.9 |
| 20260504235504 | 74 | 144 | 1.0 | 3.0 | 0.00 | 0.00 | 0.00 | 44 | 1012.9 |